When you browse on this site, cookies collect data to enhance your experience and personalize the content and advertising you see.
Visit our Privacy Policy to learn more. By continuing to use the site, you agree to this use of cookies and data.
  • En España
  • Lista de países
  • Para 7 días
  • Temperatura del agua
  • Mapa Satelital
  • El tiempo en el mapa
  • Informadores
  • user-avatar
    Iniciar sesión

    Tiempo cada hora Fier

    Hoy, 21 Julio, Domingo

    Tiempo Temperatura Precipitaciones Viento Presión Humedad
    00:00 +24°C° 0 mm 1 mps 763 mmHg 65%
    01:00 +24°C° 0 mm 1 mps 763 mmHg 66%
    02:00 +24°C° 0 mm 1 mps 762 mmHg 67%
    03:00 +24°C° 0 mm 1 mps 762 mmHg 67%
    04:00 +24°C° 0 mm 1 mps 762 mmHg 68%
    05:00 +25°C° 0 mm 1 mps 762 mmHg 63%
    06:00 +26°C° 0 mm 1 mps 762 mmHg 59%
    07:00 +28°C° 0 mm 1 mps 762 mmHg 55%
    08:00 +29°C° 0 mm 2 mps 762 mmHg 50%
    09:00 +31°C° 0 mm 2 mps 762 mmHg 45%
    10:00 +34°C° 0 mm 3 mps 762 mmHg 40%
    11:00 +34°C° 0 mm 4 mps 762 mmHg 40%
    12:00 +34°C° 0 mm 4 mps 762 mmHg 40%
    13:00 +34°C° 0 mm 5 mps 762 mmHg 40%
    14:00 +34°C° 0 mm 5 mps 762 mmHg 41%
    15:00 +33°C° 0 mm 4 mps 762 mmHg 42%
    16:00 +33°C° 0 mm 4 mps 762 mmHg 43%
    17:00 +30°C° 0 mm 3 mps 762 mmHg 49%
    18:00 +29°C° 0 mm 3 mps 762 mmHg 55%
    19:00 +27°C° 0 mm 2 mps 762 mmHg 61%
    20:00 +26°C° 0 mm 2 mps 762 mmHg 62%
    21:00 +26°C° 0 mm 1 mps 762 mmHg 64%
    22:00 +25°C° 0 mm 1 mps 763 mmHg 65%
    23:00 +25°C° 0 mm 1 mps 762 mmHg 64%

    Mañana, 22 Julio, Lunes

    Tiempo Temperatura Precipitaciones Viento Presión Humedad
    00:00 +25°C° 0 mm 1 mps 762 mmHg 64%
    01:00 +25°C° 0 mm 1 mps 762 mmHg 63%
    02:00 +25°C° 0 mm 1 mps 762 mmHg 63%
    03:00 +25°C° 0 mm 1 mps 762 mmHg 63%
    04:00 +25°C° 0 mm 1 mps 762 mmHg 64%
    05:00 +26°C° 0 mm 1 mps 762 mmHg 60%
    06:00 +27°C° 0 mm 1 mps 762 mmHg 57%
    07:00 +29°C° 0 mm 1 mps 762 mmHg 53%
    08:00 +30°C° 0 mm 2 mps 762 mmHg 49%
    09:00 +32°C° 0 mm 2 mps 762 mmHg 45%
    10:00 +35°C° 0 mm 2 mps 762 mmHg 40%
    11:00 +35°C° 0 mm 3 mps 762 mmHg 39%
    12:00 +36°C° 0 mm 4 mps 761 mmHg 38%
    13:00 +36°C° 0 mm 5 mps 761 mmHg 37%
    14:00 +36°C° 0 mm 5 mps 761 mmHg 40%
    15:00 +35°C° 0 mm 5 mps 761 mmHg 43%
    16:00 +34°C° 0 mm 5 mps 760 mmHg 46%
    17:00 +32°C° 0 mm 4 mps 760 mmHg 51%
    18:00 +30°C° 0 mm 3 mps 760 mmHg 56%
    19:00 +28°C° 0 mm 2 mps 760 mmHg 61%
    20:00 +28°C° 0 mm 2 mps 760 mmHg 63%
    21:00 +27°C° 0 mm 1 mps 761 mmHg 65%
    22:00 +27°C° 0 mm 1 mps 761 mmHg 67%
    23:00 +26°C° 0 mm 1 mps 761 mmHg 66%

    Pasado mañana, 23 Julio, Martes

    Tiempo Temperatura Precipitaciones Viento Presión Humedad
    00:00 +26°C° 0 mm 1 mps 760 mmHg 66%
    01:00 +26°C° 0 mm 1 mps 760 mmHg 65%
    02:00 +26°C° 0 mm 1 mps 760 mmHg 63%
    03:00 +26°C° 0 mm 1 mps 760 mmHg 61%
    04:00 +26°C° 0 mm 1 mps 760 mmHg 58%
    05:00 +27°C° 0 mm 2 mps 760 mmHg 55%
    06:00 +29°C° 0 mm 2 mps 760 mmHg 51%
    07:00 +30°C° 0 mm 2 mps 760 mmHg 48%
    08:00 +33°C° 0 mm 3 mps 760 mmHg 44%
    09:00 +35°C° 0 mm 3 mps 760 mmHg 40%
    10:00 +36°C° 0 mm 3 mps 760 mmHg 36%
    11:00 +36°C° 0 mm 4 mps 760 mmHg 36%
    12:00 +37°C° 0 mm 5 mps 759 mmHg 37%
    13:00 +38°C° 0 mm 6 mps 759 mmHg 37%
    14:00 +36°C° 0 mm 6 mps 759 mmHg 38%
    15:00 +35°C° 0 mm 7 mps 759 mmHg 40%
    16:00 +34°C° 0 mm 7 mps 758 mmHg 42%
    17:00 +33°C° 0 mm 6 mps 758 mmHg 49%
    18:00 +30°C° 0 mm 5 mps 758 mmHg 55%
    19:00 +28°C° 0 mm 3 mps 759 mmHg 62%
    20:00 +27°C° 0 mm 3 mps 759 mmHg 64%
    21:00 +27°C° 0 mm 2 mps 759 mmHg 67%
    22:00 +26°C° 0 mm 1 mps 759 mmHg 69%
    23:00 +26°C° 0 mm 2 mps 759 mmHg 66%

    24 Julio, Miércoles

    Tiempo Temperatura Precipitaciones Viento Presión Humedad
    00:00 +26°C° 0 mm 2 mps 759 mmHg 63%
    01:00 +26°C° 0 mm 2 mps 759 mmHg 60%
    02:00 +26°C° 0 mm 2 mps 759 mmHg 57%
    03:00 +25°C° 0 mm 3 mps 758 mmHg 55%
    04:00 +25°C° 0 mm 3 mps 758 mmHg 53%
    05:00 +27°C° 0 mm 3 mps 758 mmHg 51%
    06:00 +28°C° 0 mm 3 mps 759 mmHg 48%
    07:00 +29°C° 0 mm 3 mps 759 mmHg 46%
    08:00 +31°C° 0 mm 3 mps 759 mmHg 41%
    09:00 +34°C° 0 mm 3 mps 759 mmHg 36%
    10:00 +36°C° 0 mm 2 mps 759 mmHg 32%
    11:00 +36°C° 0 mm 3 mps 759 mmHg 33%
    12:00 +36°C° 0 mm 4 mps 759 mmHg 34%
    13:00 +36°C° 0 mm 4 mps 758 mmHg 35%
    14:00 +35°C° 0 mm 5 mps 758 mmHg 38%
    15:00 +35°C° 0 mm 5 mps 758 mmHg 41%
    16:00 +34°C° 0 mm 5 mps 758 mmHg 44%
    17:00 +32°C° 0 mm 4 mps 758 mmHg 51%
    18:00 +29°C° 0 mm 3 mps 758 mmHg 58%
    19:00 +28°C° 0 mm 2 mps 758 mmHg 65%
    20:00 +27°C° 0 mm 2 mps 759 mmHg 66%
    21:00 +27°C° 0 mm 2 mps 759 mmHg 67%
    22:00 +26°C° 0 mm 2 mps 760 mmHg 68%
    23:00 +26°C° 0 mm 2 mps 759 mmHg 65%

    25 Julio, Jueves

    Tiempo Temperatura Precipitaciones Viento Presión Humedad
    00:00 +26°C° 0 mm 2 mps 759 mmHg 62%
    01:00 +26°C° 0 mm 2 mps 759 mmHg 59%
    02:00 +26°C° 0 mm 2 mps 759 mmHg 58%
    03:00 +26°C° 0 mm 2 mps 759 mmHg 58%
    04:00 +26°C° 0 mm 2 mps 759 mmHg 57%
    05:00 +27°C° 0 mm 1 mps 759 mmHg 54%
    06:00 +28°C° 0 mm 1 mps 760 mmHg 50%
    07:00 +30°C° 0 mm 1 mps 760 mmHg 47%
    08:00 +31°C° 0 mm 1 mps 760 mmHg 43%
    09:00 +33°C° 0 mm 1 mps 760 mmHg 39%
    10:00 +35°C° 0 mm 1 mps 760 mmHg 36%
    11:00 +36°C° 0 mm 3 mps 760 mmHg 37%
    12:00 +35°C° 0 mm 4 mps 760 mmHg 39%
    13:00 +35°C° 0 mm 5 mps 760 mmHg 40%
    14:00 +35°C° 0 mm 4 mps 759 mmHg 42%
    15:00 +34°C° 0 mm 4 mps 759 mmHg 44%
    16:00 +34°C° 0 mm 3 mps 759 mmHg 46%
    17:00 +31°C° 0 mm 2 mps 759 mmHg 52%
    18:00 +30°C° 0 mm 1 mps 759 mmHg 58%
    19:00 +28°C° 0 mm 1 mps 759 mmHg 64%
    20:00 +27°C° 0 mm 1 mps 760 mmHg 65%
    21:00 +27°C° 0 mm 1 mps 760 mmHg 66%
    22:00 +26°C° 0 mm 1 mps 760 mmHg 67%
    23:00 +26°C° 0 mm 1 mps 760 mmHg 66%

    26 Julio, Viernes

    Tiempo Temperatura Precipitaciones Viento Presión Humedad
    00:00 +26°C° 0 mm 1 mps 760 mmHg 65%
    01:00 +26°C° 0 mm 1 mps 760 mmHg 65%
    02:00 +26°C° 0 mm 1 mps 760 mmHg 64%
    03:00 +25°C° 0 mm 1 mps 759 mmHg 64%
    04:00 +25°C° 0 mm 1 mps 759 mmHg 64%
    05:00 +27°C° 0 mm 1 mps 759 mmHg 60%
    06:00 +28°C° 0 mm 1 mps 759 mmHg 55%
    07:00 +29°C° 0 mm 1 mps 759 mmHg 51%
    08:00 +31°C° 0 mm 1 mps 759 mmHg 47%
    09:00 +32°C° 0 mm 1 mps 759 mmHg 43%
    10:00 +35°C° 0 mm 2 mps 759 mmHg 39%
    11:00 +35°C° 0 mm 3 mps 759 mmHg 38%
    12:00 +35°C° 0 mm 4 mps 759 mmHg 38%
    13:00 +36°C° 0 mm 5 mps 758 mmHg 38%
    14:00 +35°C° 0 mm 4 mps 758 mmHg 39%
    15:00 +34°C° 0 mm 4 mps 758 mmHg 41%
    16:00 +34°C° 0 mm 3 mps 757 mmHg 42%
    17:00 +31°C° 0 mm 3 mps 757 mmHg 48%
    18:00 +30°C° 0 mm 2 mps 757 mmHg 54%
    19:00 +28°C° 0 mm 1 mps 757 mmHg 59%
    20:00 +27°C° 0 mm 1 mps 757 mmHg 60%
    21:00 +27°C° 0 mm 1 mps 757 mmHg 60%
    22:00 +24°C° 0 mm 0 mps 758 mmHg 60%
    23:00 +26°C° 0 mm 1 mps 757 mmHg 61%
    Mostrar más